FW3045 Weather Reports


time (UTC)temp
C
wind
direction
speed
KPH
gust
KPH
rain 1hr
cm
rain 24hr
cm
rain mn
cm
humidity
%
barometer
mb
20260503030029 15 248 0.0 1.6 0.00 0.00 0.00 60 1013.6
20260503024528 16 249 0.0 0.0 0.00 0.00 0.00 55 1013.5
20260503023028 17 249 0.0 1.6 0.00 0.00 0.00 51 1013.5
20260503021527 18 249 0.0 0.0 0.00 0.00 0.00 47 1013.4
20260503020027 20 249 0.0 0.0 0.00 0.00 0.00 38 1013.4
20260503014526 20 249 0.0 4.8 0.00 0.00 0.00 35 1013.5
20260503013025 20 248 0.0 6.4 0.00 0.00 0.00 33 1013.5
20260503011524 20 259 0.0 8.0 0.00 0.00 0.00 35 1013.5
20260503010028 20 250 1.6 6.4 0.00 0.00 0.00 34 1013.5
20260503004521 21 271 1.6 11.3 0.00 0.00 0.00 30 1013.7
20260503003023 22 247 1.6 9.7 0.00 0.00 0.00 31 1013.7
20260503001520 22 167 0.0 6.4 0.00 0.00 0.00 30 1013.7
20260503000018 22 324 3.2 8.0 0.00 0.00 0.00 28 1013.8
20260502234524 22 247 1.6 6.4 0.00 0.00 0.00 31 1013.9
20260502233016 22 123 1.6 9.7 0.00 0.00 0.00 29 1014.1
20260502231514 22 234 3.2 12.9 0.00 0.00 0.00 30 1014.3
20260502230013 21 271 1.6 12.9 0.00 0.00 0.00 30 1014.5
20260502224513 21 243 8.0 16.1 0.00 0.00 0.00 32 1014.7
20260502223010 21 216 8.0 14.5 0.00 0.00 0.00 31 1014.9
20260502221507 21 251 6.4 14.5 0.00 0.00 0.00 31 1015.0
20260502220008 22 257 4.8 11.3 0.00 0.00 0.00 28 1015.2
20260502214515 22 356 0.0 11.3 0.00 0.00 0.00 27 1015.2
20260502213003 21 90 0.0 9.7 0.00 0.00 0.00 26 1015.4
20260502211601 21 25 1.6 12.9 0.00 0.00 0.00 29 1015.6
20260502210100 21 246 6.4 11.3 0.00 0.00 0.00 31 1016.0
20260502204614 21 266 3.2 11.3 0.00 0.00 0.00 31 1016.0
20260502203056 21 298 3.2 17.7 0.00 0.00 0.00 31 1016.1
20260502201554 21 255 4.8 17.7 0.00 0.00 0.00 32 1016.4
20260502200053 20 252 8.0 19.3 0.00 0.00 0.00 33 1016.5
20260502194552 21 287 3.2 11.3 0.00 0.00 0.00 35 1016.5
20260502193053 21 276 1.6 11.3 0.00 0.00 0.00 36 1016.6
20260502191551 20 301 6.4 14.5 0.00 0.00 0.00 37 1016.9
20260502190047 20 245 3.2 11.3 0.00 0.00 0.00 38 1017.0
20260502184555 20 31 3.2 9.7 0.00 0.00 0.00 38 1017.1
20260502183045 19 86 3.2 11.3 0.00 0.00 0.00 38 1017.2
20260502181544 19 327 0.0 8.0 0.00 0.00 0.00 41 1017.3
20260502163025 15 334 1.6 8.0 0.00 0.00 0.00 57 1018.1
20260502161520 15 295 0.0 3.2 0.00 0.00 0.00 59 1018.1
20260502151504 10 246 0.0 3.2 0.00 0.00 0.00 72 1018.3
20260502123050 3 117 0.0 1.6 0.00 0.00 0.00 90 1017.8
20260502121551 3 197 0.0 4.8 0.00 0.00 0.00 90 1017.9
20260502114542 3 147 0.0 0.0 0.00 0.00 0.00 90 1017.8
20260502113038 3 147 0.0 0.0 0.00 0.00 0.00 90 1017.7
20260502111539 3 198 1.6 3.2 0.00 0.00 0.00 91 1017.7
20260502110035 3 255 0.0 0.0 0.00 0.00 0.00 91 1017.6
20260502104529 3 116 0.0 0.0 0.00 0.00 0.00 90 1017.2
20260502103027 3 116 0.0 0.0 0.00 0.00 0.00 90 1017.1
20260502101524 3 116 0.0 0.0 0.00 0.00 0.00 90 1016.8
20260502091519 3 214 0.0 1.6 0.00 0.00 0.00 89 1016.5
20260502070057 6 212 0.0 0.0 0.00 0.00 0.00 82 1016.7
20260502064551 7 212 0.0 0.0 0.00 0.00 0.00 80 1016.6
20260502063049 7 215 0.0 1.6 0.00 0.00 0.00 78 1016.4
20260502061546 7 148 0.0 0.0 0.00 0.00 0.00 78 1016.3
20260502060044 7 207 0.0 1.6 0.00 0.00 0.00 78 1016.3
20260502054545 8 214 0.0 1.6 0.00 0.00 0.00 78 1016.1
20260502051540 8 248 0.0 1.6 0.00 0.00 0.00 75 1016.1
20260502050040 9 155 0.0 0.0 0.00 0.00 0.00 74 1016.1
20260502044540 10 155 0.0 1.6 0.00 0.00 0.00 70 1016.0
20260502043039 10 150 0.0 0.0 0.00 0.00 0.00 69 1015.8
20260502041538 10 150 0.0 0.0 0.00 0.00 0.00 66 1015.7
20260502040036 11 205 0.0 0.0 0.00 0.00 0.00 62 1015.6
20260502034535 12 204 0.0 1.6 0.00 0.00 0.00 58 1015.5
20260502033041 12 203 0.0 0.0 0.00 0.00 0.00 56 1015.4
20260502031531 13 96 0.0 0.0 0.00 0.00 0.00 55 1015.1